TimeAST,TemperatureF,Dew PointF,Humidity,Sea Level PressureIn,VisibilityMPH,Wind Direction,Wind SpeedMPH,Gust SpeedMPH,PrecipitationIn,Events,Conditions,WindDirDegrees,DateUTC
12:00 AM,82.4,77.0,84,29.92,-9999.0,ENE,12.7,-,N/A,,Unknown,70,2013-08-29 04:00:00
1:00 AM,82.4,77.0,84,29.92,-9999.0,East,15.0,-,N/A,,Unknown,80,2013-08-29 05:00:00
2:00 AM,82.4,77.0,84,29.89,-9999.0,East,15.0,-,N/A,,Unknown,80,2013-08-29 06:00:00
3:00 AM,82.4,77.0,84,29.86,-9999.0,East,11.5,-,N/A,,Unknown,90,2013-08-29 07:00:00
4:00 AM,82.4,77.0,84,29.86,-9999.0,East,10.4,-,N/A,,Unknown,90,2013-08-29 08:00:00
6:00 AM,82.4,78.8,89,29.86,-9999.0,East,9.2,-,N/A,,Unknown,90,2013-08-29 10:00:00
7:00 AM,84.2,78.8,84,29.89,6.2,East,9.2,-,N/A,,Scattered Clouds,90,2013-08-29 11:00:00
8:00 AM,84.2,77.0,79,29.89,6.2,East,12.7,-,N/A,,Partly Cloudy,100,2013-08-29 12:00:00
10:00 AM,87.8,78.8,75,29.92,6.2,ESE,12.7,-,N/A,,Scattered Clouds,110,2013-08-29 14:00:00
11:00 AM,89.6,78.8,70,29.92,6.2,East,12.7,-,N/A,,Scattered Clouds,100,2013-08-29 15:00:00
12:00 PM,89.6,77.0,66,29.92,6.2,East,10.4,-,N/A,,Partly Cloudy,100,2013-08-29 16:00:00
1:00 PM,89.6,77.0,66,29.89,6.2,ESE,11.5,-,N/A,,Partly Cloudy,110,2013-08-29 17:00:00
2:00 PM,92,76,51,29.86,25,ESE,11.5,,,,Scattered Clouds,120,2013-08-29 18:00:00
2:00 PM,91.4,75.2,59,29.86,6.2,ESE,11.5,-,N/A,,Partly Cloudy,120,2013-08-29 18:00:00
3:00 PM,89.6,75.2,62,29.83,6.2,ESE,11.5,-,N/A,,Partly Cloudy,110,2013-08-29 19:00:00
4:00 PM,87.8,75.2,66,29.83,6.2,ESE,15.0,-,N/A,,Partly Cloudy,110,2013-08-29 20:00:00
5:00 PM,87,73,56,29.83,25,East,12.7,,,,Scattered Clouds,90,2013-08-29 21:00:00
5:00 PM,87.8,73.4,62,29.83,6.2,East,12.7,-,N/A,,Partly Cloudy,90,2013-08-29 21:00:00
6:00 PM,87.8,73.4,62,29.83,6.2,East,13.8,-,N/A,,Partly Cloudy,90,2013-08-29 22:00:00
7:00 PM,86.0,73.4,66,29.83,-9999.0,East,11.5,-,N/A,,Clear,90,2013-08-29 23:00:00
8:00 PM,85,74,64,29.87,25,East,11.5,,,,Scattered Clouds,100,2013-08-30 00:00:00
8:00 PM,84.2,75.2,74,29.86,6.2,ESE,11.5,-,N/A,,Partly Cloudy,110,2013-08-30 00:00:00